Skip Page Navigation
NASA JPL Caltech
NASA Logo - Jet Propulsion Laboratory + View the NASA Portal
+ Center for Near-Earth Object Studies
JPL Home Earth Solar System Stars & Galaxies Technology
JPL Solar System Dynamics
BODIES ORBITS EPHEMERIDES TOOLS PHYSICAL DATA DISCOVERY FAQ SITE MAP
IMPORTANT: The SSD Announcement email list is now available. Major changes are coming in the near future, including possible hostname and/or URL changes. To be notified of such changes, subscribe to this email list.

Please visit this page for more details.


JPL Small-Body Database Browser
Search: [ help ]  
226041 (2002 GJ35)
Classification: Inner Main-belt Asteroid          SPK-ID: 2226041
Ephemeris | Orbit Diagram | Orbital Elements | Mission Design | Physical Parameters | Discovery Circumstances | Close-Approach Data ]

[ show orbit diagram ]
Orbital Elements at Epoch 2458600.5 (2019-Apr-27.0) TDB
Reference: JPL 16 (heliocentric ecliptic J2000)
 Element Value Uncertainty (1-sigma)   Units 
e .05810963012501318 8.3992e-08  
a 1.928072312378736 1.274e-08 au
q 1.816032743452129 1.6769e-07 au
i 23.79035872864624 6.8967e-06 deg
node 94.27142051554515 1.0498e-05 deg
peri 127.5013308007148 4.7255e-05 deg
M 75.0174123944572 5.0041e-05 deg
tp 2458396.728715534721
(2018-Oct-05.22871553)
0.00013531 TDB
period 977.8751367985127
2.68
9.6925e-06
2.654e-08
d
yr
n .3681451613327771 3.649e-09 deg/d
Q 2.040111881305343 1.3481e-08 au
  Orbit Determination Parameters
   # obs. used (total)      360  
   data-arc span      5961 days (16.32 yr)  
   first obs. used      2001-12-22  
   last obs. used      2018-04-18  
   planetary ephem.      DE431  
   SB-pert. ephem.      SB431-N16  
   condition code      0  
   norm. resid. RMS      .56045  
   source      ORB  
   producer      Otto Matic  
   solution date      2019-Jul-13 05:29:38  

Additional Information
 Earth MOID = .831981 au 
 Jupiter MOID = 3.07402 au 
 T_jup = 3.811 
[ show covariance matrix ]

Ephemeris | Orbit Diagram | Orbital Elements | Mission Design | Physical Parameters | Discovery Circumstances | Close-Approach Data ]

Physical Parameter Table
Parameter Symbol Value Units Sigma Reference Notes
absolute magnitude H 16.7   n/a MPO325987  

226041 (2002 GJ35)          Discovered 2002-Apr-02 by LINEAR at Socorro
Reference: 20091202/Numbers.arcLast Updated: 2009-12-04

[ show close-approach data ]
Ephemeris | Orbit Diagram | Orbital Elements | Mission Design | Physical Parameters | Discovery Circumstances | Close-Approach Data ]
ABOUT SSD CREDITS/AWARDS PRIVACY/COPYRIGHT GLOSSARY LINKS
FirstGov 2019-Dec-10 06:13 UT
(server date/time)  
NASA Home Page
Site Manager:   Ryan S. Park
Webmaster  Alan B. Chamberlin